Location: Christchurch
(43.5330°S, 172.6330°E)
Time: 13:43:06
(UTC+13:00)

ISS - Visible Passes

Search period start: 24 January 2019 00:00
Search period end: 03 February 2019 00:00
Orbit: 404 x 410 km, 51.6° (Epoch: 24 January)

Date Brightness Start Highest point End Pass type
(mag) Time Alt. Az. Time Alt. Az. Time Alt. Az.
28 Jan -1.5 05:34:26 10° N 05:36:47 18° NE 05:39:09 10° E visible
30 Jan -2.9 05:27:29 13° NNW 05:30:15 41° NE 05:33:27 10° ESE visible
31 Jan -2.1 04:38:10 21° NNE 04:38:58 23° NE 04:41:41 10° E visible
01 Feb -1.0 03:48:46 12° ENE 03:48:46 12° ENE 03:49:23 10° ENE visible
01 Feb -3.8 05:21:29 18° WNW 05:23:50 86° SSW 05:27:12 10° ESE visible
02 Feb -3.5 04:32:02 50° N 04:32:24 54° NE 04:35:42 10° ESE visible
